www.pogodaiklimat.ru
ПОГОДА в Кирксвилле
Время
и дата
23:55 04.02
00:55 05.02
01:55 05.02
02:55 05.02
03:55 05.02
04:55 05.02
05:55 05.02
06:55 05.02
07:55 05.02
08:55 05.02
09:55 05.02
10:55 05.02
11:55 05.02
12:55 05.02
13:55 05.02
14:55 05.02
15:55 05.02
16:55 05.02
17:55 05.02
18:55 05.02
19:55 05.02
20:55 05.02
21:55 05.02
22:55 05.02
23:55 05.02
00:55 06.02
01:55 06.02
02:55 06.02
03:55 06.02
04:55 06.02
05:55 06.02
06:55 06.02
07:55 06.02
08:55 06.02
09:55 06.02
10:55 06.02
11:55 06.02
12:55 06.02
13:55 06.02
14:55 06.02
15:55 06.02
16:55 06.02
17:55 06.02
18:55 06.02
19:55 06.02
20:55 06.02
21:55 06.02
22:55 06.02
Ветер
(напр.,м/с)
Видим. Явления Облачность Т
(С)
Тd
(С)
f
(%)
Тe
(С)
Тes
(С)
Комфортность P
(гПа)
Po
(гПа)
Тmin
(С)
Tmax
(С)
R
(мм)
R24
(мм)
S
(см)
ЮЗ 5 16 км ясно +5.0 -2.2 60 +1 +1 1013.9 978.3 +4.4 +8.9
ЮЗ 4 16 км ясно +3.9 -1.7 67 0 0 1013.4 977.9
ЮЗ 3 16 км ясно +3.3 -1.1 73 0 0 1013.5 977.9
З 4 16 км ясно +2.8 -1.1 75 -2 -2 1013.9 978.3
З 4 16 км ясно +1.7 -1.7 78 -3 -3 1014.6 978.9
З 4 16 км ясно 0.0 -2.8 81 -5 -5 1015.0 979.2
З 4 16 км ясно -0.6 -3.3 82 -6 -6 1016.1 980.2 -0.6 +5.0
З 4 16 км ясно -1.1 -3.9 81 -7 -7 1016.4 980.5
З 3 16 км ясно -0.6 -3.3 82 -5 -5 1016.9 980.9
З 4 16 км ясно +2.2 -2.8 69 -2 -2 1017.7 981.9
З 3 16 км ясно +6.7 -1.7 55 +4 +6 1017.8 982.2
З 5 16 км ясно +9.4 -1.7 46 +7 +9 1018.2 982.5
З 4 16 км ясно +10.6 -1.7 42 +9 +13 1017.9 982.2 -1.1 +11.1
З 5 16 км ясно +12.2 -1.7 38 +10 +14 1017.9 982.2
З 6 16 км ясно +13.3 -1.7 35 +11 +14 1017.9 982.2
З 6 16 км ясно +13.3 -2.2 34 +11 +13 1018.1 982.5
З 5 16 км ясно +13.3 -2.2 34 +12 +13 1018.8 983.2
СЗ 3 16 км ясно +11.7 -2.2 38 +10 +11 1019.2 983.2
С 3 16 км ясно +7.2 -2.2 51 +5 +5 1020.2 984.1 +6.1 +13.3
СЗ 2 16 км ясно +5.6 -2.2 57 +4 +4 1020.9 984.5
СВ 3 16 км ясно +2.8 -2.8 67 -1 -1 1021.0 984.8
СВ 3 16 км ясно +2.2 -2.2 73 -2 -2 1021.1 984.8
В 3 16 км ясно +1.1 -2.2 79 -3 -3 1021.1 984.8
В 3 16 км ясно -0.6 -2.8 85 -5 -5 1021.3 985.1
В 3 16 км ясно 0.0 -2.8 81 -5 -5 1021.2 985.1 -0.6 +7.2
В 3 16 км ясно -1.7 -3.9 85 -7 -7 1021.4 985.4
В 4 16 км ясно -0.6 -2.2 89 -6 -6 1020.8 984.8
В 3 16 км ясно -0.6 -2.2 89 -5 -5 1020.6 984.8
ЮВ 3 16 км ясно -0.6 -2.8 85 -5 -5 1020.1 984.1
ЮВ 5 16 км ясно -0.6 -2.8 85 -7 -7 1019.6 983.5
ЮВ 4 16 км ясно -0.6 -2.2 89 -6 -6 1019.3 983.2 -2.2
ЮВ 6 16 км ясно 0.0 -2.2 85 -7 -7 1018.8 982.5
ЮВ 5 16 км ясно +0.6 -1.7 85 -5 -5 1018.4 982.2
ЮВ 8 16 км ясно +2.8 -0.6 78 -4 -4 1017.1 980.9
ЮВ 9
{13}
16 км ясно +6.7 -0.6 60 +2 +2 1015.7 979.9
ЮВ 12
{17}
16 км ясно +10.6 +0.6 50 +6 +6 1013.7 977.9
ЮВ 11
{19}
16 км ясно +12.2 +2.2 50 +9 +9 1011.8 976.3 -0.6 +13.3
ЮВ 11
{15}
16 км ясно +15.0 +4.4 49 +13 +13 1008.7 973.3
Ю 12
{18}
16 км ясно +16.7 +6.1 50 +15 +15 1007.2 972.0
Ю 11
{17}
16 км ясно +16.7 +6.7 52 +15 +15 1006.4 971.1
Ю 11
{16}
16 км ясно +17.2 +7.2 52 +16 +16 1005.9 970.7
Ю 9
{15}
16 км 5/5 1500 м +16.1 +6.7 54 +14 +14 1006.0 970.7
Ю 9
{13}
16 км 2/2 1650 м +15.0 +7.2 60 +13 +13 1005.9 970.7 +12.2 +17.8
Ю 9
{14}
16 км 8/8 1440 м +15.0 +7.8 62 +13 +13 1006.3 971.1
ЮЗ 9
{14}
16 км 8/8 1290 м +15.0 +8.3 64 +13 +13 1006.7 971.4
ЮЗ 9
{15}
16 км 8/8 1080 m
[Ac]
+15.0 +8.3 64 +13 +13 1007.3 972.0
ЮЗ 8
{18}
16 км 8/5 930 m
[Ac]
+15.0 +8.9 67 +13 +13 1008.0 972.7
З 7
{13}
16 км 2/2 1200 м +9.4 +3.3 66 +6 +6 1009.9 974.7
Местоположение метеостанции Kirksville Regional Airport: широта 40.0972 долгота -92.5433 высота над уровнем моря 294 м.
В архиве по умолчанию представлена погода в Кирксвилле за последние 1-2 суток. Обновление информации о фактической погоде в базе происходит ежечасно! Архивные данные за месяц целиком и за предыдущие месяцы Вы можете получить, выбрав интересующий диапазон дат из раскрывающегося списка и нажав кнопку "Ввод!".
Внимание! Архив погоды МЕТАР в базе сайта по станциям, не включенным в климатический монитор, хранится не более 60 дней. Нет смысла пытаться выбрать более раннюю дату.
*Определитесь, кто Вы:
Внимание! Время в таблицах - местное (без учета летнего времени). Для получения всемирного времени необходимо вычесть поправку, которая равна -6 ч.
Смотрите также архив погоды в соседних городах и на ближайших метеорологических станциях:
Партнеры нашего сайта:      
Пояснения к столбцам:
  • Ветер - указаны скорость ветра в м/с - средняя за 10 мин, порывы в срок и между сроками (в фигурных скобках) и направление, откуда дует ветер: С - северный,
  • СВ - северо-восточный, В - восточный, ЮВ - юго-восточный, Ю - южный, ЮЗ - юго-западный, З - западный, СЗ - северо-западный.
  • Видимость - горизонтальная дальность видимости в метрах или километрах. При видимости от 1 до 10 км при отсутствии осадков обычно наблюдается дымка, при ухудшении видимости до 1 км и менее - туман. В сухую погоду видимость может ухудшаться дымом, пылью или мглою.
  • Явления - указаны атмосферные явления, наблюдавшиеся в срок или в последний час перед сроком; фигурными скобками обозначены явления, наблюдавшиеся между сроками (за 1-3 часа до срока); квадратными скобками обозначены град или гололедные отложения с указанием их диаметра в мм.
  • Облачность - указаны через наклонную черту общая и нижняя облачность в баллах и высота нижней границы облаков в метрах; квадратными скобками обозначены формы облаков: Ci - перистые, Cs - перисто-слоистые, Cc - перисто-кучевые, Ac - высококучевые, As - высокослоистые, Sc - слоисто-кучевые, Ns - слоисто-дождевые, Cu - кучевые, Cb - кучево-дождевые. Подробнее классификацию облаков см. в Атласе облаков (PDF).
  • T - Температура воздуха - температура, измеренная на высоте 2 м над землей.
  • Td - Температура точки росы - температура, при понижении до которой содержащийся в воздухе водяной пар достигнет насыщения.
  • f - Относительная влажность воздуха - влажноcть воздуха, измеренная на высоте 2 м над землей.
  • Te - Эффективная температура - температура, которую ощущает одетый по сезону человек в тени. Характеристика душности погоды. При расчете учитывается влияние влажности воздуха и скорости ветра на теплоощущения человека.
  • Tes - Эффективная температура на солнце - температура, которую ощущает человек, с поправкой на солнечный нагрев. Характеристика знойности погоды. Зависит от высоты солнца над горизонтом, облачности и скорости ветра. Ночью, в пасмурную погоду, а также при ветре 12 м/с и более поправка равна нулю.
  • P - Атмосферное давление - приведенное к уровню моря атмосферное давление.
  • Po - Атмосферное давление - измеренное на уровне метеостанции атмосферное давление.
  • Tmin - Минимальная температура - минимум температуры воздуха на высоте 2 м над землей.
  • Tmax - Максимальная температура - максимум температуры воздуха на высоте 2 м над землей.
  • R - Количество осадков - Количество выпавших осадков за период времени, мм. При наведении курсора мыши на число - период времени, за который выпало указанное количество осадков.
  • R24 - Количество осадков - Количество выпавших осадков за 24 часа, мм.
  • S - Снежный покров - Высота снежного покрова, см. При наведении курсора мыши на число - состояние снежного покрова и степень покрытия местности в баллах.